Volver al catálogo

STARLINK-35834

ActivoComunicacionesVLEO
NORAD 66570·PAYLOAD·🇺🇸 United States

Lanzado Nov 21, 2025 desde Cape Canaveral Space Force Station

Loading…

Próximos Pases (próximas 24 horas)

TLE

ActualizadoSource: CelesTrak SupGP

Época: Sep 15, 2026, 03:55 UTC

1 66570C 25268P   26258.16368056 -.00012793  00000+0 -46219-3 0  2581
2 66570  43.0021 357.4595 0001780 252.8407  55.8997 15.27666709    11

Sigue STARLINK-35834 en tiempo real con AllMySat

Download on the App Store